Norwood, MA

5:01 AM EDT on October 01, 2016 (GMT -0400)
Norwood Memorial

Weather History for KOWD - October, 2011

Change the Weather History Date:

Thursday, October 20, 2011

  Actual Average Record
Temperature  
Mean Temperature 64 °F -  
Max Temperature 72 °F 57 °F 77 °F (2012)
Min Temperature 57 °F 34 °F 21 °F (2003)
Degree Days  
Heating Degree Days 1    
Growing Degree Days 14 (Base 50)    
Moisture  
Dew Point 54 °F    
Average Humidity 79    
Maximum Humidity 94    
Minimum Humidity 49    
Precipitation  
Precipitation 0.72 in - - ()
Sea Level Pressure  
Sea Level Pressure 29.54 in    
Wind  
Wind Speed 8 mph (SSE)    
Max Wind Speed 20 mph    
Max Gust Speed 34 mph    
Visibility 6 miles    
Events Rain    
Averages and records for this station are not official NWS values.
T = Trace of Precipitation, MM = Missing Value Source: NWS Daily Summary

Daily Weather History Graph

Daily Weather History Graph

Search for Another Location

Airport or City:

Trip Planner

Search our weather history database for the weather conditions in past years. The results will help you decide how hot, cold, wet, or windy it might be!

Date:

Astronomy

Oct. 20, 2011 Rise Set
Actual Time 7:02 AM EDT 5:55 PM EDT
Civil Twilight 6:34 AM EDT 6:23 PM EDT
Nautical Twilight 6:01 AM EDT 6:56 PM EDT
Astronomical Twilight 5:29 AM EDT 7:28 PM EDT
Moon No Moon Rise 2:09 PM EDT (10/20)
Length of Visible Light 11h 49m
Length of Day
10h 52m
Last Quarter, 44% of the Moon is Illuminated
Oct 20
Last Quarter
Oct 26
New
Nov 2
First Quarter
Nov 10
Full
Nov 18
Last Quarter

Hourly Weather History & Observations

Time (EDT) Temp. Dew Point Humidity Pressure Visibility Wind Dir Wind Speed Gust Speed Precip Events Conditions
12:22 AM 57.2 °F 55.4 °F 94% 29.59 in 2.5 mi NNE 10.4 mph 17.3 mph 0.02 in Rain Light Rain
12:53 AM 57.0 °F 55.0 °F 93% 29.58 in 2.5 mi ENE 10.4 mph 20.7 mph 0.26 in Rain Heavy Rain
1:01 AM 57.2 °F 55.4 °F 94% 29.57 in 1.5 mi NE 6.9 mph 20.7 mph 0.14 in Rain Heavy Rain
1:08 AM 57.2 °F 55.4 °F 94% 29.57 in 3.0 mi NE 12.7 mph 20.7 mph 0.16 in Rain Rain
1:53 AM 57.0 °F 55.0 °F 93% 29.54 in 6.0 mi NE 5.8 mph - 0.26 in Rain Light Rain
2:26 AM 57.2 °F 53.6 °F 88% 29.55 in 2.0 mi NNE 8.1 mph 19.6 mph 0.12 in Rain Heavy Rain
2:37 AM 57.2 °F 55.4 °F 94% 29.55 in 8.0 mi NE 8.1 mph - 0.13 in Rain Light Rain
2:53 AM 57.0 °F 55.0 °F 93% 29.54 in 5.0 mi North 5.8 mph - 0.14 in Rain Light Rain
3:53 AM 57.0 °F 55.0 °F 93% 29.54 in 6.0 mi Calm Calm - 0.03 in Rain Light Rain
4:53 AM 57.0 °F 55.0 °F 93% 29.55 in 6.0 mi Variable 3.5 mph - 0.00 in   Overcast
6:53 AM 57.9 °F 55.0 °F 90% 29.53 in 4.0 mi Calm Calm - 0.00 in Rain Light Rain
6:58 AM 57.2 °F 55.4 °F 94% 29.53 in 2.0 mi Calm Calm - 0.00 in Rain Light Rain
7:53 AM 57.9 °F 55.9 °F 93% 29.51 in 2.0 mi Variable 5.8 mph - 0.00 in   Overcast
8:53 AM 57.9 °F 55.9 °F 93% 29.49 in 2.0 mi NE 5.8 mph - N/A   Overcast
9:53 AM 60.1 °F 57.9 °F 93% 29.50 in 2.0 mi Calm Calm - N/A   Overcast
10:14 AM 60.8 °F 57.2 °F 88% 29.48 in 1.5 mi ENE 4.6 mph - 0.02 in Rain Light Rain
10:53 AM 60.1 °F 57.9 °F 93% 29.49 in 1.5 mi Calm Calm - 0.03 in Rain Light Rain
11:49 AM 64.4 °F 62.6 °F 94% 29.47 in 8.0 mi Calm Calm - 0.00 in   Overcast
11:53 AM 66.0 °F 63.0 °F 90% 29.47 in 9.0 mi Calm Calm - 0.00 in   Overcast
12:00 PM 66.2 °F 64.4 °F 94% 29.47 in 10.0 mi SSW 6.9 mph - N/A   Overcast
12:17 PM 64.4 °F 59.0 °F 83% 29.45 in 10.0 mi South 12.7 mph 21.9 mph N/A   Scattered Clouds
12:53 PM 71.1 °F 55.9 °F 59% 29.45 in 10.0 mi South 16.1 mph 23.0 mph N/A   Clear
1:53 PM 70.0 °F 52.0 °F 53% 29.47 in 10.0 mi South 19.6 mph 26.5 mph N/A   Clear
2:53 PM 68.0 °F 48.9 °F 50% 29.48 in 10.0 mi South 18.4 mph 34.5 mph N/A   Clear
3:53 PM 66.9 °F 46.9 °F 49% 29.50 in 10.0 mi SSW 15.0 mph 27.6 mph N/A   Partly Cloudy
4:53 PM 64.9 °F 48.0 °F 54% 29.52 in 10.0 mi South 12.7 mph 29.9 mph N/A   Scattered Clouds
5:53 PM 63.0 °F 46.9 °F 56% 29.54 in 10.0 mi South 17.3 mph 27.6 mph N/A   Mostly Cloudy
6:53 PM 61.0 °F 46.0 °F 58% 29.57 in 10.0 mi SSW 13.8 mph 24.2 mph N/A   Scattered Clouds
7:53 PM 60.1 °F 46.9 °F 62% 29.60 in 10.0 mi SSW 11.5 mph 23.0 mph N/A   Clear
8:53 PM 59.0 °F 46.9 °F 64% 29.62 in 10.0 mi SSW 10.4 mph 18.4 mph N/A   Clear
9:53 PM 59.0 °F 46.0 °F 62% 29.65 in 10.0 mi SSW 8.1 mph - N/A   Scattered Clouds
10:53 PM 59.0 °F 44.1 °F 58% 29.66 in 10.0 mi SSW 10.4 mph - N/A   Partly Cloudy
11:53 PM 57.0 °F 43.0 °F 59% 29.67 in 10.0 mi SW 9.2 mph - N/A   Clear